[[{"header":{"parameterUnit":"m.s-1","parameterCategory":1,"la1":30.2991,"la2":30.254,"lo1":-89.0895,"lo2":-89.0444,"dy":0.0017,"dx":0.0017,"nx":28,"ny":28,"refTime":"2025-11-18T09:00:00:Z","depth":0,"parameterNumber":2,"parameterNumberName":"U-component_of_WINDS"},"data":[0,0,0,0,0,0,0,0,0,0,0,0,0,0,0,0,0,0,0,0,0,0,0,0,0,0,0,0,0,0,0,0,0,0,0,0,0,0,0,0,0,0,0,0,0,0,0,0,0,0,0,0,0,0,0,0,0,0,0.3148,0.3148,0,0.315,0.315,0.315,0.3163,0.3163,0.3164,0.3164,0.3166,0.3166,0.3166,0,0,0,0,0,0,0,0,0,0,0,0,0,0.3155,0.3155,0.3148,0.3148,0.3148,0.315,0.315,0.315,0.3163,0.3163,0.3164,0.3164,0.3166,0.3166,0.3166,0,0,0,0,0,0,0,0,0,0,0,0,0,0.3154,0.3155,0.3148,0.3154,0.3155,0.315,0.315,0.315,0.3163,0.3163,0.3164,0.3164,0.3166,0.3166,0.3166,0.3155,0,0,0.3165,0.3165,0,0,0,0,0,0,0,0,0.3154,0.3154,0.3153,0.3154,0.3155,0.3157,0.3154,0.3152,0.3163,0.316,0.3164,0.3164,0.3163,0.3163,0.3162,0.3155,0.3155,0.3165,0.3165,0.3164,0.3164,0,0,0,0,0,0,0,0.3154,0.3154,0.3149,0.3153,0.3154,0.3158,0.3158,0.3153,0.3159,0.316,0.3161,0.3161,0.3163,0.3162,0.3162,0.3155,0.3165,0.3164,0.3164,0.3164,0.3139,0.3139,0,0,0,0,0,0,0.3154,0.3154,0.3149,0.3149,0.3156,0.3157,0.3158,0.3156,0.3159,0.316,0.3161,0.3162,0.3163,0.3163,0.3162,0.315,0.3164,0.3164,0.3164,0.314,0.3139,0.3139,0,0,0,0,0,0,0.3154,0.3153,0.3149,0.3152,0.3151,0.3157,0.3154,0.3155,0.3155,0.3159,0.316,0.3159,0.3163,0.3163,0.3157,0.315,0.3164,0.3164,0.314,0.314,0.3139,0.3124,0,0,0,0,0,0,0.3154,0.3153,0.3148,0.3151,0.3151,0.3142,0.3154,0.3155,0.3154,0.3155,0.3158,0.3159,0.3163,0.3157,0.3156,0.315,0.3163,0.3141,0.314,0.3139,0.3125,0.3123,0.3121,0,0,0,0,0,0.3154,0.3144,0.3148,0.3147,0.3145,0.3142,0.3142,0.3147,0.3153,0.3149,0.3152,0.3159,0.3151,0.3156,0.3156,0.3149,0.3141,0.314,0.3139,0.3126,0.3124,0.3122,0,0,0,0,0,0,0.3139,0.3144,0.3149,0.3139,0.314,0.3144,0.3138,0.3144,0.3143,0.3144,0.3152,0.3152,0.3145,0.3147,0.3152,0.3139,0.3148,0.3146,0.3138,0.3135,0.3133,0.3133,0.3163,0,0,0,0,0,0.3135,0.3131,0.3136,0.3127,0.3127,0.3133,0.3132,0.3136,0.3137,0.3137,0.314,0.3141,0.3139,0.3137,0.3136,0.3126,0.3127,0.3122,0.312,0.3118,0.3116,0.3112,0.311,0.3135,0.3135,0.3135,0,0,0.3126,0.3128,0.3125,0.3124,0.3125,0.3122,0.3133,0.3129,0.3126,0.3137,0.3131,0.3133,0.3135,0.3127,0.3124,0.3128,0.311,0.3117,0.3115,0.3115,0.3111,0.3109,0.3106,0.3135,0.3135,0.3135,0,0,0.3107,0.3109,0.3102,0.3103,0.3105,0.3109,0.3107,0.311,0.3112,0.3107,0.3115,0.3113,0.3109,0.311,0.311,0.3094,0.31,0.3093,0.3082,0.3078,0.3076,0.3074,0.3069,0.3067,0.3092,0.3092,0.3092,0,0.3095,0.309,0.3097,0.3093,0.3092,0.3102,0.3096,0.3097,0.3098,0.3098,0.3103,0.3099,0.3101,0.3094,0.309,0.309,0.3088,0.3092,0.3076,0.3074,0.3073,0.3067,0.3065,0.3091,0.3091,0.3091,0.3091,0,0.3076,0.3072,0.3067,0.3068,0.3067,0.3061,0.3068,0.3067,0.3072,0.3075,0.307,0.3073,0.3073,0.3072,0.3076,0.3066,0.3068,0.3075,0.3083,0.3069,0.3065,0.3063,0.309,0.309,0.3091,0.3091,0,0,0.3046,0.3053,0.3051,0.3052,0.3055,0.3053,0.3048,0.3048,0.3047,0.3048,0.3044,0.3042,0.3048,0.3048,0.3053,0.305,0.3037,0.3057,0.3057,0.3053,0.3026,0.3021,0.3019,0.3042,0.3042,0.3041,0.3026,0,0.3029,0.3021,0.3028,0.3019,0.3016,0.3026,0.3023,0.3025,0.3029,0.3027,0.3032,0.303,0.3038,0.3038,0.3035,0.3039,0.3032,0.3041,0.3039,0.3039,0.3037,0.3016,0.301,0.2996,0.3024,0.3024,0.3024,0,0.3006,0.3007,0.2997,0.3003,0.3002,0.2998,0.2999,0.2998,0.3001,0.3004,0.3005,0.3012,0.3008,0.3017,0.3013,0.3019,0.3019,0.3021,0.3021,0.302,0.303,0.3015,0.2991,0.2989,0.3021,0.3021,0.3021,0,0.2986,0.2984,0.2978,0.2979,0.2985,0.2982,0.2985,0.2989,0.2988,0.299,0.299,0.299,0.2991,0.2991,0.2999,0.3005,0.2994,0.3003,0.2996,0.2996,0.2992,0.2992,0.2968,0.2993,0.2993,0.2993,0.2993,0,0.2964,0.2958,0.2969,0.2966,0.296,0.2969,0.2962,0.2966,0.2969,0.2967,0.2977,0.2975,0.2984,0.2983,0.2989,0.2985,0.2985,0.2988,0.2989,0.2987,0.2986,0.2986,0.2987,0.2993,0.2993,0.2993,0.2993,0,0.294,0.2947,0.2941,0.2948,0.295,0.2945,0.2951,0.2948,0.2954,0.2951,0.2951,0.2959,0.2958,0.2966,0.2967,0.2971,0.2964,0.2967,0.2963,0.2964,0.2956,0.2957,0.2931,0.2928,0.2955,0.2955,0.2954,0,0.2925,0.2921,0.2928,0.2927,0.2929,0.2928,0.2928,0.2937,0.2937,0.2941,0.2938,0.2939,0.2939,0.2938,0.2944,0.2946,0.2949,0.294,0.2949,0.2947,0.2949,0.2949,0.2948,0.2938,0.2937,0.2937,0.2937,0,0.2899,0.2903,0.2903,0.2904,0.2905,0.2906,0.2908,0.2907,0.2917,0.2917,0.2917,0.2918,0.2919,0.292,0.2922,0.2925,0.2933,0.2934,0.2932,0.2929,0.2927,0.2928,0.2957,0.2934,0.2935,0.2935,0.2935,0.2935,0.2879,0.2876,0.288,0.288,0.2883,0.2885,0.2883,0.2889,0.2889,0.2891,0.2897,0.2896,0.29,0.2905,0.2907,0.2907,0.2912,0.2909,0.2909,0.2908,0.2906,0.2927,0.2908,0.2908,0.2908,0.2908,0.2908,0,0.2853,0.2857,0.2857,0.286,0.286,0.2868,0.2871,0.2871,0.287,0.2873,0.2874,0.2875,0.2876,0.2883,0.2885,0.2883,0.2887,0.2883,0.2883,0.2884,0.2902,0.2903,0.2881,0.2881,0.2881,0.2881,0.2881,0.2881,0.2839,0.2835,0.284,0.2837,0.2841,0.284,0.2842,0.2844,0.2847,0.2847,0.2848,0.2853,0.2858,0.2861,0.2863,0.2865,0.2865,0.286,0.2863,0.288,0.2883,0.2885,0.2886,0.286,0.286,0.2845,0.2845,0.2845]},{"header":{"parameterUnit":"m.s-1","parameterCategory":1,"la1":30.2991,"la2":30.254,"lo1":-89.0895,"lo2":-89.0444,"dy":0.0017,"dx":0.0017,"nx":28,"ny":28,"refTime":"2025-11-18T09:00:00:Z","depth":0,"parameterNumber":3,"parameterNumberName":"V-component_of_WINDS"},"data":[0,0,0,0,0,0,0,0,0,0,0,0,0,0,0,0,0,0,0,0,0,0,0,0,0,0,0,0,0,0,0,0,0,0,0,0,0,0,0,0,0,0,0,0,0,0,0,0,0,0,0,0,0,0,0,0,0,0,-0.6424,-0.6424,0,-0.6456,-0.6457,-0.6457,-0.6454,-0.6454,-0.6453,-0.6453,-0.6489,-0.649,-0.6491,0,0,0,0,0,0,0,0,0,0,0,0,0,-0.6363,-0.6364,-0.6424,-0.6424,-0.6425,-0.6456,-0.6457,-0.6457,-0.6454,-0.6454,-0.6453,-0.6453,-0.6488,-0.649,-0.6491,0,0,0,0,0,0,0,0,0,0,0,0,0,-0.6392,-0.6365,-0.6424,-0.6427,-0.6428,-0.6456,-0.6457,-0.6457,-0.6455,-0.6454,-0.6453,-0.6452,-0.6488,-0.649,-0.6492,-0.652,0,0,-0.6498,-0.6499,0,0,0,0,0,0,0,0,-0.639,-0.6394,-0.6426,-0.6427,-0.6428,-0.6451,-0.6448,-0.6478,-0.6455,-0.6445,-0.6453,-0.6452,-0.6477,-0.648,-0.6487,-0.6521,-0.6523,-0.6498,-0.65,-0.6501,-0.6501,0,0,0,0,0,0,0,-0.6388,-0.6393,-0.6437,-0.6427,-0.6428,-0.6428,-0.6431,-0.6454,-0.6464,-0.6445,-0.6445,-0.6449,-0.6477,-0.6485,-0.6488,-0.6523,-0.6498,-0.65,-0.6501,-0.6502,-0.6584,-0.6585,0,0,0,0,0,0,-0.6385,-0.6391,-0.6436,-0.6438,-0.6407,-0.643,-0.6433,-0.6444,-0.6464,-0.6466,-0.645,-0.6449,-0.6482,-0.6486,-0.6489,-0.6525,-0.6501,-0.6502,-0.6504,-0.6583,-0.6584,-0.6585,0,0,0,0,0,0,-0.6384,-0.6389,-0.6435,-0.6415,-0.642,-0.6432,-0.6444,-0.6445,-0.6453,-0.6467,-0.6469,-0.6456,-0.6482,-0.6486,-0.6512,-0.6526,-0.6503,-0.6505,-0.6582,-0.6583,-0.6584,-0.6594,0,0,0,0,0,0,-0.6382,-0.6389,-0.6399,-0.6415,-0.6421,-0.6456,-0.6444,-0.6446,-0.6457,-0.6456,-0.6474,-0.6476,-0.6481,-0.6509,-0.6514,-0.6528,-0.6507,-0.6581,-0.6582,-0.6584,-0.6593,-0.6596,-0.6598,0,0,0,0,0,-0.638,-0.64,-0.6399,-0.6405,-0.6434,-0.6457,-0.6461,-0.6465,-0.6458,-0.6469,-0.6478,-0.6476,-0.6523,-0.6512,-0.6518,-0.6532,-0.658,-0.6582,-0.6584,-0.6592,-0.6595,-0.6598,0,0,0,0,0,0,-0.6386,-0.6402,-0.6401,-0.6427,-0.644,-0.6456,-0.6469,-0.6469,-0.6485,-0.6484,-0.649,-0.6494,-0.652,-0.6529,-0.6516,-0.6561,-0.6551,-0.6554,-0.6555,-0.6558,-0.6561,-0.6558,-0.6509,0,0,0,0,0,-0.639,-0.6406,-0.642,-0.6442,-0.6449,-0.6458,-0.6468,-0.6471,-0.6485,-0.6491,-0.6502,-0.6517,-0.6535,-0.6547,-0.6565,-0.6594,-0.6599,-0.6607,-0.661,-0.6612,-0.6615,-0.6633,-0.6637,-0.6592,-0.6592,-0.6591,0,0,-0.6399,-0.641,-0.642,-0.6443,-0.6454,-0.6472,-0.6463,-0.6482,-0.6495,-0.6494,-0.6519,-0.6528,-0.6545,-0.6573,-0.6586,-0.6581,-0.6629,-0.6615,-0.6616,-0.6618,-0.6635,-0.664,-0.6643,-0.6593,-0.6593,-0.6592,0,0,-0.6425,-0.6434,-0.6454,-0.6465,-0.6481,-0.6487,-0.6492,-0.6508,-0.6514,-0.6539,-0.6539,-0.6556,-0.6587,-0.6599,-0.661,-0.6642,-0.6641,-0.6648,-0.6662,-0.6679,-0.6683,-0.6686,-0.6699,-0.6703,-0.665,-0.665,-0.6651,0,-0.6434,-0.646,-0.6464,-0.6483,-0.6494,-0.6494,-0.6514,-0.6525,-0.6546,-0.6555,-0.6549,-0.6589,-0.66,-0.6632,-0.664,-0.6648,-0.6655,-0.6646,-0.6682,-0.6685,-0.6688,-0.67,-0.6705,-0.6651,-0.6651,-0.6651,-0.6651,0,-0.6471,-0.6489,-0.6503,-0.6524,-0.6536,-0.6556,-0.6564,-0.6577,-0.6579,-0.6586,-0.6613,-0.6627,-0.6648,-0.6655,-0.6658,-0.6688,-0.6685,-0.668,-0.667,-0.6693,-0.6705,-0.6709,-0.6652,-0.6652,-0.6652,-0.6652,0,0,-0.65,-0.6524,-0.6529,-0.6539,-0.6557,-0.6572,-0.6592,-0.6612,-0.6623,-0.6639,-0.6657,-0.6684,-0.668,-0.6692,-0.6696,-0.6711,-0.6737,-0.6705,-0.6706,-0.6711,-0.6773,-0.6777,-0.6782,-0.6737,-0.6738,-0.6738,-0.6772,0,-0.6528,-0.6564,-0.6569,-0.6601,-0.6619,-0.6619,-0.6637,-0.6651,-0.6659,-0.6676,-0.6685,-0.6705,-0.6698,-0.6706,-0.672,-0.6731,-0.675,-0.6728,-0.6755,-0.6756,-0.6751,-0.6787,-0.6791,-0.6822,-0.6776,-0.6777,-0.6778,0,-0.6565,-0.6581,-0.6615,-0.6632,-0.664,-0.6656,-0.6675,-0.6691,-0.6708,-0.6713,-0.6727,-0.6729,-0.6752,-0.6741,-0.6773,-0.6759,-0.677,-0.6777,-0.6779,-0.6782,-0.6768,-0.6792,-0.6831,-0.6836,-0.6784,-0.6784,-0.6783,0,-0.6584,-0.6614,-0.6639,-0.6647,-0.6667,-0.6679,-0.6688,-0.6704,-0.6716,-0.6734,-0.6742,-0.6762,-0.6774,-0.679,-0.6798,-0.6789,-0.6831,-0.682,-0.6837,-0.6837,-0.6845,-0.6845,-0.6888,-0.6852,-0.6852,-0.6852,-0.6852,0,-0.6615,-0.6636,-0.6648,-0.6662,-0.6686,-0.6693,-0.6717,-0.6726,-0.674,-0.6758,-0.676,-0.6777,-0.6787,-0.6805,-0.6812,-0.6839,-0.6844,-0.6849,-0.6851,-0.685,-0.6849,-0.6857,-0.6856,-0.6853,-0.6853,-0.6853,-0.6852,0,-0.664,-0.6649,-0.6675,-0.6693,-0.6698,-0.6715,-0.673,-0.6746,-0.6754,-0.6776,-0.6782,-0.6795,-0.6818,-0.6828,-0.6856,-0.686,-0.6891,-0.6891,-0.6885,-0.6886,-0.6903,-0.6901,-0.6953,-0.6961,-0.6919,-0.6919,-0.692,0,-0.6659,-0.6675,-0.6695,-0.6706,-0.6716,-0.6735,-0.6747,-0.6755,-0.6768,-0.6789,-0.6803,-0.6825,-0.6843,-0.6879,-0.6892,-0.6914,-0.6914,-0.6931,-0.6918,-0.6916,-0.6916,-0.6915,-0.6917,-0.6934,-0.6934,-0.6934,-0.6935,0,-0.6693,-0.6697,-0.6714,-0.6734,-0.6749,-0.6764,-0.678,-0.679,-0.68,-0.6815,-0.6838,-0.6852,-0.6881,-0.6903,-0.6926,-0.6937,-0.6938,-0.6939,-0.6944,-0.6943,-0.6939,-0.6942,-0.6893,-0.6938,-0.6937,-0.6937,-0.6937,-0.6937,-0.6716,-0.6731,-0.6747,-0.6767,-0.678,-0.6795,-0.681,-0.682,-0.6839,-0.6862,-0.6866,-0.6891,-0.6909,-0.6939,-0.6951,-0.6972,-0.6968,-0.6975,-0.6977,-0.6979,-0.698,-0.6936,-0.6976,-0.6976,-0.6976,-0.6976,-0.6975,0,-0.675,-0.6761,-0.6779,-0.6801,-0.6817,-0.6816,-0.6834,-0.6848,-0.6869,-0.6886,-0.6904,-0.6931,-0.6953,-0.6968,-0.6991,-0.7005,-0.7006,-0.701,-0.701,-0.7013,-0.6982,-0.6975,-0.7009,-0.7009,-0.7009,-0.7009,-0.7009,-0.7009,-0.677,-0.6795,-0.6801,-0.6833,-0.6844,-0.6868,-0.6878,-0.6893,-0.6906,-0.6935,-0.6954,-0.6963,-0.698,-0.7004,-0.7025,-0.7029,-0.7038,-0.7043,-0.7047,-0.7018,-0.7015,-0.7011,-0.7005,-0.7045,-0.7045,-0.7076,-0.7077,-0.7077]}]]